Time,TemperatureF,DewpointF,PressureIn,WindDirection,WindDirectionDegrees,WindSpeedMPH,WindSpeedGustMPH,Humidity,HourlyPrecipIn,Conditions,Clouds,dailyrainin,SoftwareType,DateUTC
2013-06-14 00:00:00,44.3,38.2,29.98,NNW,330,0.0,0.0,79,0.00,,---,0.12,VWS V14.01,2013-06-14 06:00:00,
2013-06-14 00:05:00,44.1,38.0,29.99,ENE,57,0.0,0.0,79,0.00,,---,0.00,VWS V14.01,2013-06-14 06:05:00,
2013-06-14 00:10:00,43.9,38.1,29.99,ENE,57,0.0,0.0,80,0.00,,---,0.00,VWS V14.01,2013-06-14 06:10:00,
2013-06-14 00:15:00,43.8,38.0,29.99,ENE,57,0.0,0.0,80,0.00,,---,0.00,VWS V14.01,2013-06-14 06:15:00,
2013-06-14 00:20:00,43.6,37.8,29.98,ENE,57,0.0,0.0,80,0.00,,---,0.00,VWS V14.01,2013-06-14 06:20:00,
2013-06-14 00:25:00,43.5,37.8,29.98,ENE,57,0.0,0.0,80,0.00,,---,0.00,VWS V14.01,2013-06-14 06:25:00,
2013-06-14 00:30:00,43.3,37.9,29.98,ENE,57,0.0,0.0,81,0.00,,---,0.00,VWS V14.01,2013-06-14 06:30:00,
2013-06-14 00:35:00,43.2,38.1,29.99,ENE,57,0.0,0.0,82,0.00,,---,0.00,VWS V14.01,2013-06-14 06:35:00,
2013-06-14 00:40:00,43.1,38.0,29.99,ENE,57,0.0,0.0,82,0.00,,---,0.00,VWS V14.01,2013-06-14 06:40:00,
2013-06-14 00:45:00,42.6,37.5,29.99,ENE,57,0.0,0.0,82,0.00,,---,0.00,VWS V14.01,2013-06-14 06:45:00,
2013-06-14 00:50:00,42.3,37.2,29.99,ENE,57,0.0,0.0,82,0.00,,---,0.00,VWS V14.01,2013-06-14 06:50:00,
2013-06-14 00:56:00,41.9,37.1,29.99,ENE,57,0.0,0.0,83,0.00,,---,0.00,VWS V14.01,2013-06-14 06:56:00,
2013-06-14 01:01:00,41.8,37.0,29.99,ENE,57,0.0,0.0,83,0.00,,---,0.00,VWS V14.01,2013-06-14 07:01:00,
2013-06-14 01:06:00,41.3,36.2,29.99,ENE,57,0.0,0.0,82,0.00,,---,0.00,VWS V14.01,2013-06-14 07:06:00,
2013-06-14 01:11:00,40.9,36.1,29.99,ENE,57,0.0,0.0,83,0.00,,---,0.00,VWS V14.01,2013-06-14 07:11:00,
2013-06-14 01:16:00,40.6,36.2,29.99,ENE,57,0.0,0.0,84,0.00,,---,0.00,VWS V14.01,2013-06-14 07:16:00,
2013-06-14 01:21:00,40.3,35.9,29.99,ENE,57,0.0,0.0,84,0.00,,---,0.00,VWS V14.01,2013-06-14 07:21:00,
2013-06-14 01:26:00,40.3,35.9,29.99,ENE,57,0.0,0.0,84,0.00,,---,0.00,VWS V14.01,2013-06-14 07:26:00,
2013-06-14 01:31:00,40.3,36.2,30.00,ENE,57,0.0,0.0,85,0.00,,---,0.00,VWS V14.01,2013-06-14 07:31:00,
2013-06-14 01:36:00,40.3,36.2,30.00,ENE,57,0.0,0.0,85,0.00,,---,0.00,VWS V14.01,2013-06-14 07:36:00,
2013-06-14 01:41:00,40.1,36.0,30.00,ENE,57,0.0,0.0,85,0.00,,---,0.00,VWS V14.01,2013-06-14 07:41:00,
2013-06-14 01:46:00,39.8,35.7,29.99,ENE,57,0.0,0.0,85,0.00,,---,0.00,VWS V14.01,2013-06-14 07:46:00,
2013-06-14 01:51:00,39.6,35.5,29.99,ENE,57,0.0,0.0,85,0.00,,---,0.00,VWS V14.01,2013-06-14 07:51:00,
2013-06-14 01:56:00,39.5,35.7,29.99,ENE,57,0.0,0.0,86,0.00,,---,0.00,VWS V14.01,2013-06-14 07:56:00,
2013-06-14 02:01:00,39.5,35.7,29.99,ENE,57,0.0,0.0,86,0.00,,---,0.00,VWS V14.01,2013-06-14 08:01:00,
2013-06-14 02:06:00,39.3,35.5,29.99,ENE,57,0.0,0.0,86,0.00,,---,0.00,VWS V14.01,2013-06-14 08:06:00,
2013-06-14 02:11:00,39.2,35.4,29.99,ENE,57,0.0,0.0,86,0.00,,---,0.00,VWS V14.01,2013-06-14 08:11:00,
2013-06-14 02:16:00,39.2,35.7,30.01,ENE,57,0.0,0.0,87,0.00,,---,0.00,VWS V14.01,2013-06-14 08:16:00,
2013-06-14 02:21:00,39.2,35.7,30.01,ENE,57,0.0,0.0,87,0.00,,---,0.00,VWS V14.01,2013-06-14 08:21:00,
2013-06-14 02:26:00,39.1,35.6,30.01,ENE,57,0.0,0.0,87,0.00,,---,0.00,VWS V14.01,2013-06-14 08:26:00,
2013-06-14 02:31:00,38.9,35.4,30.00,ENE,57,0.0,0.0,87,0.00,,---,0.00,VWS V14.01,2013-06-14 08:31:00,
2013-06-14 02:37:00,38.9,35.4,30.00,ENE,57,0.0,0.0,87,0.00,,---,0.00,VWS V14.01,2013-06-14 08:37:00,
2013-06-14 02:42:00,39.1,35.8,30.00,ENE,57,0.0,0.0,88,0.00,,---,0.00,VWS V14.01,2013-06-14 08:42:00,
2013-06-14 02:47:00,39.1,35.8,30.00,ENE,57,0.0,0.0,88,0.00,,---,0.00,VWS V14.01,2013-06-14 08:47:00,
2013-06-14 02:52:00,38.9,35.4,30.00,ENE,57,0.0,0.0,87,0.00,,---,0.00,VWS V14.01,2013-06-14 08:52:00,
2013-06-14 02:57:00,38.8,35.3,30.00,ENE,57,0.0,0.0,87,0.00,,---,0.00,VWS V14.01,2013-06-14 08:57:00,
2013-06-14 03:02:00,38.8,35.3,30.00,ENE,57,0.0,0.0,87,0.00,,---,0.00,VWS V14.01,2013-06-14 09:02:00,
2013-06-14 03:07:00,38.8,35.3,30.00,ENE,57,0.0,0.0,87,0.00,,---,0.00,VWS V14.01,2013-06-14 09:07:00,
2013-06-14 03:12:00,38.9,35.4,30.00,ENE,57,0.0,0.0,87,0.00,,---,0.00,VWS V14.01,2013-06-14 09:12:00,
2013-06-14 03:17:00,38.9,35.4,30.00,ENE,57,0.0,0.0,87,0.00,,---,0.00,VWS V14.01,2013-06-14 09:17:00,
2013-06-14 03:22:00,38.9,35.4,30.00,ENE,57,0.0,0.0,87,0.00,,---,0.00,VWS V14.01,2013-06-14 09:22:00,
2013-06-14 03:27:00,38.9,35.4,30.00,ENE,57,0.0,0.0,87,0.00,,---,0.00,VWS V14.01,2013-06-14 09:27:00,
2013-06-14 03:32:00,38.9,35.4,30.00,ENE,57,0.0,0.0,87,0.00,,---,0.00,VWS V14.01,2013-06-14 09:32:00,
2013-06-14 03:37:00,38.9,35.4,30.00,ENE,57,0.0,0.0,87,0.00,,---,0.00,VWS V14.01,2013-06-14 09:37:00,
2013-06-14 03:43:00,39.1,35.8,30.00,ENE,57,0.0,0.0,88,0.00,,---,0.00,VWS V14.01,2013-06-14 09:43:00,
2013-06-14 03:48:00,39.2,36.0,30.00,ENE,57,0.0,0.0,88,0.00,,---,0.00,VWS V14.01,2013-06-14 09:48:00,
2013-06-14 03:53:00,39.2,36.0,30.00,ENE,57,0.0,0.0,88,0.00,,---,0.00,VWS V14.01,2013-06-14 09:53:00,
2013-06-14 03:58:00,39.5,36.2,30.00,ENE,57,0.0,0.0,88,0.00,,---,0.00,VWS V14.01,2013-06-14 09:58:00,
2013-06-14 04:03:00,39.5,36.2,29.99,ENE,57,0.0,0.0,88,0.00,,---,0.00,VWS V14.01,2013-06-14 10:03:00,
2013-06-14 04:08:00,39.6,36.3,29.99,ENE,57,0.0,0.0,88,0.00,,---,0.00,VWS V14.01,2013-06-14 10:08:00,
2013-06-14 04:13:00,39.6,36.1,29.99,ENE,57,0.0,0.0,87,0.00,,---,0.00,VWS V14.01,2013-06-14 10:13:00,
2013-06-14 04:18:00,39.6,36.1,29.95,ENE,57,0.0,0.0,87,0.00,,---,0.00,VWS V14.01,2013-06-14 10:18:00,
2013-06-14 04:23:00,39.8,36.2,29.95,ENE,57,0.0,0.0,87,0.00,,---,0.00,VWS V14.01,2013-06-14 10:23:00,
2013-06-14 04:28:00,39.9,36.3,29.95,ENE,57,0.0,0.0,87,0.00,,---,0.00,VWS V14.01,2013-06-14 10:28:00,
2013-06-14 04:33:00,39.9,36.3,29.95,ENE,57,0.0,0.0,87,0.00,,---,0.00,VWS V14.01,2013-06-14 10:33:00,
2013-06-14 04:38:00,40.1,36.5,29.95,ENE,57,0.0,0.0,87,0.00,,---,0.00,VWS V14.01,2013-06-14 10:38:00,
2013-06-14 04:43:00,40.2,36.7,29.95,ENE,57,0.0,0.0,87,0.00,,---,0.00,VWS V14.01,2013-06-14 10:43:00,
2013-06-14 04:48:00,40.3,36.5,29.96,ENE,57,0.0,0.0,86,0.00,,---,0.00,VWS V14.01,2013-06-14 10:48:00,
2013-06-14 04:53:00,40.5,36.7,29.96,ENE,57,0.0,0.0,86,0.00,,---,0.00,VWS V14.01,2013-06-14 10:53:00,
2013-06-14 04:58:00,40.8,36.9,29.96,ENE,57,0.0,0.0,86,0.00,,---,0.00,VWS V14.01,2013-06-14 10:58:00,
2013-06-14 05:03:00,40.8,36.9,29.94,ENE,57,0.0,0.0,86,0.00,,---,0.00,VWS V14.01,2013-06-14 11:03:00,
2013-06-14 05:08:00,40.9,36.8,29.94,ENE,57,0.0,0.0,85,0.00,,---,0.00,VWS V14.01,2013-06-14 11:08:00,
2013-06-14 05:13:00,40.9,37.0,29.94,ENE,57,0.0,0.0,86,0.00,,---,0.00,VWS V14.01,2013-06-14 11:13:00,
2013-06-14 05:19:00,41.1,37.2,29.94,ENE,57,0.0,0.0,86,0.00,,---,0.00,VWS V14.01,2013-06-14 11:19:00,
2013-06-14 05:24:00,41.2,37.3,29.94,ENE,57,0.0,0.0,86,0.00,,---,0.00,VWS V14.01,2013-06-14 11:24:00,
2013-06-14 05:29:00,41.5,37.3,29.94,ENE,57,0.0,0.0,85,0.00,,---,0.00,VWS V14.01,2013-06-14 11:29:00,
2013-06-14 05:34:00,41.6,37.1,29.95,NW,313,1.0,2.0,84,0.00,,---,0.00,VWS V14.01,2013-06-14 11:34:00,
2013-06-14 05:39:00,42.1,36.7,29.95,NW,314,0.0,0.0,81,0.00,,---,0.00,VWS V14.01,2013-06-14 11:39:00,
2013-06-14 05:44:00,42.5,36.8,29.95,NW,317,0.0,0.0,80,0.00,,---,0.00,VWS V14.01,2013-06-14 11:44:00,
2013-06-14 05:49:00,42.8,37.1,29.95,NW,318,0.0,0.0,80,0.00,,---,0.00,VWS V14.01,2013-06-14 11:49:00,
2013-06-14 05:54:00,43.1,37.4,29.95,NNW,338,0.0,0.0,80,0.00,,---,0.00,VWS V14.01,2013-06-14 11:54:00,
2013-06-14 05:59:00,43.2,36.5,29.95,ENE,57,0.0,1.0,77,0.00,,---,0.00,VWS V14.01,2013-06-14 11:59:00,
2013-06-14 06:04:00,43.3,37.2,29.95,ENE,65,1.0,1.0,79,0.00,,---,0.00,VWS V14.01,2013-06-14 12:04:00,
2013-06-14 06:09:00,43.5,37.1,29.95,East,94,0.0,0.0,78,0.00,,---,0.00,VWS V14.01,2013-06-14 12:09:00,
2013-06-14 06:14:00,43.6,37.5,29.95,East,94,0.0,0.0,79,0.00,,---,0.00,VWS V14.01,2013-06-14 12:14:00,
2013-06-14 06:19:00,43.8,37.4,29.97,NNW,340,0.0,0.0,78,0.00,,---,0.00,VWS V14.01,2013-06-14 12:19:00,
2013-06-14 06:24:00,43.8,37.1,29.97,East,90,0.0,2.0,77,0.00,,---,0.00,VWS V14.01,2013-06-14 12:24:00,
2013-06-14 06:29:00,43.9,36.5,29.97,NNW,334,0.0,0.0,75,0.00,,---,0.00,VWS V14.01,2013-06-14 12:29:00,
2013-06-14 06:34:00,44.1,37.4,29.97,East,90,0.0,0.0,77,0.00,,---,0.00,VWS V14.01,2013-06-14 12:34:00,
2013-06-14 06:39:00,44.2,37.1,29.97,East,87,0.0,0.0,76,0.00,,---,0.00,VWS V14.01,2013-06-14 12:39:00,
2013-06-14 06:44:00,44.3,35.9,29.97,SE,129,0.0,1.0,72,0.00,,---,0.00,VWS V14.01,2013-06-14 12:44:00,
2013-06-14 06:50:00,44.6,36.8,29.97,SE,129,0.0,0.0,74,0.00,,---,0.00,VWS V14.01,2013-06-14 12:50:00,
2013-06-14 06:55:00,44.8,37.7,29.97,SE,129,0.0,0.0,76,0.00,,---,0.00,VWS V14.01,2013-06-14 12:55:00,
2013-06-14 07:00:00,44.9,37.1,29.97,ENE,57,0.0,3.0,74,0.00,,---,0.00,VWS V14.01,2013-06-14 13:00:00,
2013-06-14 07:05:00,44.9,37.1,29.98,ENE,57,0.0,0.0,74,0.00,,---,0.00,VWS V14.01,2013-06-14 13:05:00,
2013-06-14 07:10:00,44.9,36.8,29.98,NNE,22,0.0,0.0,73,0.00,,---,0.00,VWS V14.01,2013-06-14 13:10:00,
2013-06-14 07:15:00,44.9,37.1,29.98,North,9,0.0,0.0,74,0.00,,---,0.00,VWS V14.01,2013-06-14 13:15:00,
2013-06-14 07:20:00,45.1,37.7,29.99,NE,46,0.0,0.0,75,0.00,,---,0.00,VWS V14.01,2013-06-14 13:20:00,
2013-06-14 07:25:00,45.1,37.3,29.99,NE,46,0.0,2.0,74,0.00,,---,0.00,VWS V14.01,2013-06-14 13:25:00,
2013-06-14 07:30:00,45.4,36.6,29.99,NE,46,0.0,0.0,71,0.00,,---,0.00,VWS V14.01,2013-06-14 13:30:00,
2013-06-14 07:35:00,45.5,37.0,29.99,NE,46,0.0,1.0,72,0.00,,---,0.00,VWS V14.01,2013-06-14 13:35:00,
2013-06-14 07:40:00,45.8,36.6,29.99,East,84,0.0,2.0,70,0.00,,---,0.00,VWS V14.01,2013-06-14 13:40:00,
2013-06-14 07:45:00,46.1,36.9,29.99,East,84,0.0,1.0,70,0.00,,---,0.00,VWS V14.01,2013-06-14 13:45:00,
2013-06-14 07:50:00,46.4,38.2,30.00,East,84,0.0,0.0,73,0.00,,---,0.00,VWS V14.01,2013-06-14 13:50:00,
2013-06-14 07:55:00,46.7,36.3,30.00,North,360,0.0,1.0,67,0.00,,---,0.00,VWS V14.01,2013-06-14 13:55:00,
2013-06-14 08:00:00,47.0,36.2,30.00,NW,319,0.0,1.0,66,0.00,,---,0.00,VWS V14.01,2013-06-14 14:00:00,
2013-06-14 08:05:00,47.3,36.9,29.98,NE,35,0.0,2.0,67,0.00,,---,0.00,VWS V14.01,2013-06-14 14:05:00,
2013-06-14 08:10:00,47.6,36.0,29.98,NW,307,2.0,4.0,64,0.00,,---,0.00,VWS V14.01,2013-06-14 14:10:00,
2013-06-14 08:15:00,47.9,35.5,29.98,North,360,3.0,6.0,62,0.00,,---,0.00,VWS V14.01,2013-06-14 14:15:00,
2013-06-14 08:20:00,48.2,36.6,29.99,NE,55,3.0,3.0,64,0.00,,---,0.00,VWS V14.01,2013-06-14 14:20:00,
2013-06-14 08:25:00,48.5,36.9,29.99,NW,305,0.0,2.0,64,0.00,,---,0.00,VWS V14.01,2013-06-14 14:25:00,
2013-06-14 08:31:00,48.6,36.6,29.99,North,9,0.0,1.0,63,0.00,,---,0.00,VWS V14.01,2013-06-14 14:31:00,
2013-06-14 08:36:00,48.9,37.3,29.98,NW,305,3.0,3.0,64,0.00,,---,0.00,VWS V14.01,2013-06-14 14:36:00,
2013-06-14 08:41:00,49.2,35.5,29.98,North,11,0.0,3.0,59,0.00,,---,0.00,VWS V14.01,2013-06-14 14:41:00,
2013-06-14 08:46:00,49.2,34.2,29.99,ESE,109,1.0,7.0,56,0.00,,---,0.00,VWS V14.01,2013-06-14 14:46:00,
2013-06-14 08:51:00,49.4,36.9,29.99,NE,38,0.0,1.0,62,0.00,,---,0.00,VWS V14.01,2013-06-14 14:51:00,
2013-06-14 08:56:00,49.8,34.8,29.99,NW,316,5.0,7.0,56,0.00,,---,0.00,VWS V14.01,2013-06-14 14:56:00,
2013-06-14 09:01:00,50.2,34.7,29.99,ESE,119,0.0,5.0,55,0.00,,---,0.00,VWS V14.01,2013-06-14 15:01:00,
2013-06-14 09:06:00,50.4,34.4,29.99,East,87,5.0,5.0,54,0.00,,---,0.00,VWS V14.01,2013-06-14 15:06:00,
2013-06-14 09:11:00,50.7,36.0,29.99,ESE,120,2.0,7.0,57,0.00,,---,0.00,VWS V14.01,2013-06-14 15:11:00,
2013-06-14 09:16:00,51.4,35.8,30.00,NNW,332,3.0,8.0,55,0.00,,---,0.00,VWS V14.01,2013-06-14 15:16:00,
2013-06-14 09:21:00,52.0,34.9,30.00,NNE,27,2.0,5.0,52,0.00,,---,0.00,VWS V14.01,2013-06-14 15:21:00,
2013-06-14 09:26:00,52.3,34.7,30.00,NNW,340,0.0,7.0,51,0.00,,---,0.00,VWS V14.01,2013-06-14 15:26:00,
2013-06-14 09:31:00,52.6,36.5,29.99,North,355,4.0,4.0,54,0.00,,---,0.00,VWS V14.01,2013-06-14 15:31:00,
2013-06-14 09:36:00,53.1,36.9,29.99,NNE,26,0.0,4.0,54,0.00,,---,0.00,VWS V14.01,2013-06-14 15:36:00,
2013-06-14 09:42:00,53.5,37.3,29.99,North,5,1.0,2.0,54,0.00,,---,0.00,VWS V14.01,2013-06-14 15:42:00,
2013-06-14 09:47:00,53.8,34.1,29.99,ENE,63,4.0,12.0,47,0.00,,---,0.00,VWS V14.01,2013-06-14 15:47:00,
2013-06-14 09:52:00,53.5,34.8,29.99,North,5,8.0,8.0,49,0.00,,---,0.00,VWS V14.01,2013-06-14 15:52:00,
2013-06-14 09:57:00,53.6,33.9,29.99,NNW,348,10.0,10.0,47,0.00,,---,0.00,VWS V14.01,2013-06-14 15:57:00,
2013-06-14 10:02:00,53.6,33.3,30.00,North,5,3.0,7.0,46,0.00,,---,0.00,VWS V14.01,2013-06-14 16:02:00,
2013-06-14 10:07:00,53.5,33.8,30.00,NNE,33,3.0,3.0,47,0.00,,---,0.00,VWS V14.01,2013-06-14 16:07:00,
2013-06-14 10:12:00,53.9,35.7,30.00,NE,46,0.0,2.0,50,0.00,,---,0.00,VWS V14.01,2013-06-14 16:12:00,
2013-06-14 10:17:00,54.4,34.6,30.00,North,11,0.0,5.0,47,0.00,,---,0.00,VWS V14.01,2013-06-14 16:17:00,
2013-06-14 10:22:00,54.8,35.0,30.00,North,360,0.0,3.0,47,0.00,,---,0.00,VWS V14.01,2013-06-14 16:22:00,
2013-06-14 10:28:00,54.7,34.9,30.00,NE,38,1.0,2.0,47,0.00,,---,0.00,VWS V14.01,2013-06-14 16:28:00,
2013-06-14 10:33:00,54.2,33.9,29.99,NE,39,0.0,2.0,46,0.00,,---,0.00,VWS V14.01,2013-06-14 16:33:00,
2013-06-14 10:38:00,53.8,33.5,29.99,NNW,327,0.0,2.0,46,0.00,,---,0.00,VWS V14.01,2013-06-14 16:38:00,
2013-06-14 10:43:00,53.8,34.1,29.99,South,189,2.0,3.0,47,0.00,,---,0.00,VWS V14.01,2013-06-14 16:43:00,
2013-06-14 10:48:00,53.6,33.9,30.00,NNE,22,0.0,3.0,47,0.00,,---,0.00,VWS V14.01,2013-06-14 16:48:00,
2013-06-14 10:53:00,54.1,33.2,30.00,NW,305,1.0,4.0,45,0.00,,---,0.00,VWS V14.01,2013-06-14 16:53:00,
2013-06-14 10:58:00,54.7,35.4,30.00,NNW,338,0.0,2.0,48,0.00,,---,0.00,VWS V14.01,2013-06-14 16:58:00,
2013-06-14 11:03:00,54.8,33.3,29.99,NE,36,0.0,5.0,44,0.00,,---,0.00,VWS V14.01,2013-06-14 17:03:00,
2013-06-14 11:08:00,54.7,35.4,29.99,North,355,3.0,7.0,48,0.00,,---,0.00,VWS V14.01,2013-06-14 17:08:00,
2013-06-14 11:13:00,54.7,35.4,29.99,NE,51,1.0,1.0,48,0.00,,---,0.00,VWS V14.01,2013-06-14 17:13:00,
2013-06-14 11:19:00,55.4,35.0,30.00,East,101,0.0,7.0,46,0.00,,---,0.00,VWS V14.01,2013-06-14 17:19:00,
2013-06-14 11:24:00,57.0,32.9,30.00,NNE,24,4.0,8.0,40,0.00,,---,0.00,VWS V14.01,2013-06-14 17:24:00,
2013-06-14 11:29:00,58.1,33.3,30.00,North,355,1.0,1.0,39,0.00,,---,0.00,VWS V14.01,2013-06-14 17:29:00,
2013-06-14 11:34:00,58.3,31.5,29.99,NNE,23,3.0,10.0,36,0.00,,---,0.00,VWS V14.01,2013-06-14 17:34:00,
2013-06-14 11:39:00,58.1,32.7,29.99,SSW,199,0.0,7.0,38,0.00,,---,0.00,VWS V14.01,2013-06-14 17:39:00,
2013-06-14 11:44:00,58.4,31.6,29.99,North,360,3.0,12.0,36,0.00,,---,0.00,VWS V14.01,2013-06-14 17:44:00,
2013-06-14 11:49:00,58.9,34.0,30.00,SSE,157,0.0,3.0,39,0.00,,---,0.00,VWS V14.01,2013-06-14 17:49:00,
2013-06-14 11:54:00,58.9,33.4,30.00,NW,325,0.0,5.0,38,0.00,,---,0.00,VWS V14.01,2013-06-14 17:54:00,
2013-06-14 11:59:00,59.6,35.9,30.00,ESE,109,3.0,4.0,41,0.00,,---,0.00,VWS V14.01,2013-06-14 17:59:00,
2013-06-14 12:04:00,60.7,35.0,29.98,NNW,337,2.0,5.0,38,0.00,,---,0.00,VWS V14.01,2013-06-14 18:04:00,
2013-06-14 12:09:00,61.3,36.2,29.98,ENE,72,6.0,6.0,39,0.00,,---,0.00,VWS V14.01,2013-06-14 18:09:00,
2013-06-14 12:14:00,62.3,33.6,29.98,East,89,1.0,5.0,34,0.00,,---,0.00,VWS V14.01,2013-06-14 18:14:00,
2013-06-14 12:20:00,63.1,30.4,29.98,West,276,0.0,6.0,29,0.00,,---,0.00,VWS V14.01,2013-06-14 18:20:00,
2013-06-14 12:25:00,62.7,31.6,29.98,NE,38,1.0,6.0,31,0.00,,---,0.00,VWS V14.01,2013-06-14 18:25:00,
2013-06-14 12:30:00,62.9,34.8,29.98,WSW,253,3.0,5.0,35,0.00,,---,0.00,VWS V14.01,2013-06-14 18:30:00,
2013-06-14 12:35:00,63.4,35.3,29.98,NE,34,3.0,5.0,35,0.00,,---,0.00,VWS V14.01,2013-06-14 18:35:00,
2013-06-14 12:40:00,63.5,29.0,29.98,NW,326,1.0,10.0,27,0.00,,---,0.00,VWS V14.01,2013-06-14 18:40:00,
2013-06-14 12:45:00,63.4,32.3,29.98,North,10,3.0,6.0,31,0.00,,---,0.00,VWS V14.01,2013-06-14 18:45:00,
2013-06-14 12:50:00,64.2,33.8,29.98,NNW,345,0.0,6.0,32,0.00,,---,0.00,VWS V14.01,2013-06-14 18:50:00,
2013-06-14 12:55:00,64.8,32.7,29.98,North,5,7.0,7.0,30,0.00,,---,0.00,VWS V14.01,2013-06-14 18:55:00,
2013-06-14 13:00:00,65.0,33.7,29.98,NNW,331,3.0,10.0,31,0.00,,---,0.00,VWS V14.01,2013-06-14 19:00:00,
2013-06-14 13:05:00,64.8,34.3,29.97,NW,322,0.0,5.0,32,0.00,,---,0.00,VWS V14.01,2013-06-14 19:05:00,
2013-06-14 13:10:00,64.0,32.0,29.97,NE,55,4.0,7.0,30,0.00,,---,0.00,VWS V14.01,2013-06-14 19:10:00,
2013-06-14 13:15:00,63.2,31.3,29.97,NNE,30,1.0,5.0,30,0.00,,---,0.00,VWS V14.01,2013-06-14 19:15:00,
2013-06-14 13:20:00,63.1,33.6,30.00,NNE,27,3.0,8.0,33,0.00,,---,0.00,VWS V14.01,2013-06-14 19:20:00,
2013-06-14 13:25:00,62.4,32.9,30.00,NNE,22,0.0,11.0,33,0.00,,---,0.00,VWS V14.01,2013-06-14 19:25:00,
2013-06-14 13:31:00,62.6,33.1,30.00,NNW,336,0.0,6.0,33,0.00,,---,0.00,VWS V14.01,2013-06-14 19:31:00,
2013-06-14 13:36:00,63.4,33.8,30.00,East,95,0.0,3.0,33,0.00,,---,0.00,VWS V14.01,2013-06-14 19:36:00,
2013-06-14 13:41:00,64.5,33.2,30.00,NE,53,3.0,6.0,31,0.00,,---,0.00,VWS V14.01,2013-06-14 19:41:00,
2013-06-14 13:46:00,65.6,32.5,29.98,NNW,344,3.0,9.0,29,0.00,,---,0.00,VWS V14.01,2013-06-14 19:46:00,
2013-06-14 13:51:00,65.5,30.7,29.98,WNW,303,4.0,15.0,27,0.00,,---,0.00,VWS V14.01,2013-06-14 19:51:00,
2013-06-14 13:56:00,64.8,31.8,29.98,NW,313,0.0,8.0,29,0.00,,---,0.00,VWS V14.01,2013-06-14 19:56:00,
2013-06-14 14:01:00,64.7,30.0,29.99,NNW,342,1.0,10.0,27,0.00,,---,0.00,VWS V14.01,2013-06-14 20:01:00,
2013-06-14 14:06:00,65.0,29.3,29.99,NNE,13,0.0,11.0,26,0.00,,---,0.00,VWS V14.01,2013-06-14 20:06:00,
2013-06-14 14:11:00,65.6,30.8,29.99,NNE,16,5.0,9.0,27,0.00,,---,0.00,VWS V14.01,2013-06-14 20:11:00,
2013-06-14 14:16:00,65.5,31.6,29.98,NE,35,8.0,10.0,28,0.00,,---,0.00,VWS V14.01,2013-06-14 20:16:00,
2013-06-14 14:21:00,65.3,30.5,29.98,East,98,0.0,10.0,27,0.00,,---,0.00,VWS V14.01,2013-06-14 20:21:00,
2013-06-14 14:27:00,65.0,32.8,29.98,North,5,2.0,7.0,30,0.00,,---,0.00,VWS V14.01,2013-06-14 20:27:00,
2013-06-14 14:32:00,66.3,32.2,29.98,NNE,32,7.0,15.0,28,0.00,,---,0.00,VWS V14.01,2013-06-14 20:32:00,
2013-06-14 14:37:00,66.8,31.8,29.98,ESE,107,3.0,10.0,27,0.00,,---,0.00,VWS V14.01,2013-06-14 20:37:00,
2013-06-14 14:42:00,66.4,30.5,29.98,North,5,1.0,13.0,26,0.00,,---,0.00,VWS V14.01,2013-06-14 20:42:00,
2013-06-14 14:47:00,66.9,30.9,29.98,North,355,6.0,7.0,26,0.00,,---,0.00,VWS V14.01,2013-06-14 20:47:00,
2013-06-14 14:52:00,67.6,31.5,29.98,NE,37,4.0,10.0,26,0.00,,---,0.00,VWS V14.01,2013-06-14 20:52:00,
2013-06-14 14:57:00,67.9,29.8,29.98,NNW,343,0.0,12.0,24,0.00,,---,0.00,VWS V14.01,2013-06-14 20:57:00,
2013-06-14 15:02:00,66.9,31.9,29.98,North,5,1.0,4.0,27,0.00,,---,0.00,VWS V14.01,2013-06-14 21:02:00,
2013-06-14 15:07:00,66.3,31.4,29.98,NNE,21,0.0,3.0,27,0.00,,---,0.00,VWS V14.01,2013-06-14 21:07:00,
2013-06-14 15:12:00,65.5,32.4,29.98,SE,136,0.0,1.0,29,0.00,,---,0.00,VWS V14.01,2013-06-14 21:12:00,
2013-06-14 15:17:00,64.8,30.1,29.99,NNE,23,0.0,5.0,27,0.00,,---,0.00,VWS V14.01,2013-06-14 21:17:00,
2013-06-14 15:22:00,64.5,29.8,29.99,NNW,342,4.0,4.0,27,0.00,,---,0.00,VWS V14.01,2013-06-14 21:22:00,
2013-06-14 15:27:00,65.2,31.3,29.99,WNW,296,4.0,6.0,28,0.00,,---,0.00,VWS V14.01,2013-06-14 21:27:00,
2013-06-14 15:32:00,65.2,30.4,29.98,WNW,298,3.0,3.0,27,0.00,,---,0.00,VWS V14.01,2013-06-14 21:32:00,
2013-06-14 15:38:00,65.2,29.5,29.98,NNE,17,5.0,6.0,26,0.00,,---,0.00,VWS V14.01,2013-06-14 21:38:00,
2013-06-14 15:43:00,65.0,28.4,29.98,SSW,201,0.0,5.0,25,0.00,,---,0.00,VWS V14.01,2013-06-14 21:43:00,
2013-06-14 15:48:00,63.9,30.2,29.99,WNW,302,0.0,1.0,28,0.00,,---,0.00,VWS V14.01,2013-06-14 21:48:00,
2013-06-14 15:53:00,64.2,27.7,29.99,North,5,4.0,7.0,25,0.00,,---,0.00,VWS V14.01,2013-06-14 21:53:00,
2013-06-14 15:58:00,65.0,30.2,29.99,NE,51,1.0,2.0,27,0.00,,---,0.00,VWS V14.01,2013-06-14 21:58:00,
2013-06-14 16:03:00,64.8,29.1,29.98,NW,315,3.0,6.0,26,0.00,,---,0.00,VWS V14.01,2013-06-14 22:03:00,
2013-06-14 16:08:00,64.2,29.5,29.98,WNW,283,4.0,6.0,27,0.00,,---,0.00,VWS V14.01,2013-06-14 22:08:00,
2013-06-14 16:13:00,62.9,27.5,29.98,NE,47,0.0,3.0,26,0.00,,---,0.00,VWS V14.01,2013-06-14 22:13:00,
2013-06-14 16:18:00,63.2,28.7,29.98,NE,36,3.0,4.0,27,0.00,,---,0.00,VWS V14.01,2013-06-14 22:18:00,
2013-06-14 16:24:00,64.8,33.5,29.98,North,355,0.0,4.0,31,0.00,,---,0.00,VWS V14.01,2013-06-14 22:24:00,
2013-06-14 16:29:00,67.1,29.1,29.98,WNW,296,5.0,9.0,24,0.00,,---,0.00,VWS V14.01,2013-06-14 22:29:00,
2013-06-14 16:34:00,67.8,30.7,29.96,North,5,2.0,5.0,25,0.00,,---,0.00,VWS V14.01,2013-06-14 22:34:00,
2013-06-14 16:39:00,67.4,29.4,29.96,North,355,3.0,3.0,24,0.00,,---,0.00,VWS V14.01,2013-06-14 22:39:00,
2013-06-14 16:44:00,66.8,31.8,29.96,NE,38,0.0,2.0,27,0.00,,---,0.00,VWS V14.01,2013-06-14 22:44:00,
2013-06-14 16:49:00,66.6,28.7,29.96,NNE,33,0.0,4.0,24,0.00,,---,0.00,VWS V14.01,2013-06-14 22:49:00,
2013-06-14 16:54:00,66.4,29.5,29.96,NNW,346,3.0,5.0,25,0.00,,---,0.00,VWS V14.01,2013-06-14 22:54:00,
2013-06-14 16:59:00,66.8,29.9,29.96,North,350,0.0,7.0,25,0.00,,---,0.00,VWS V14.01,2013-06-14 22:59:00,
2013-06-14 17:04:00,67.9,29.8,29.96,NE,44,1.0,8.0,24,0.00,,---,0.00,VWS V14.01,2013-06-14 23:04:00,
2013-06-14 17:09:00,68.6,30.4,29.96,North,5,1.0,10.0,24,0.00,,---,0.00,VWS V14.01,2013-06-14 23:09:00,
2013-06-14 17:14:00,68.1,28.9,29.96,NNW,346,0.0,4.0,23,0.00,,---,0.00,VWS V14.01,2013-06-14 23:14:00,
2013-06-14 17:20:00,67.3,31.3,29.95,NNE,26,2.0,3.0,26,0.00,,---,0.00,VWS V14.01,2013-06-14 23:20:00,
2013-06-14 17:25:00,67.8,29.7,29.95,WNW,294,0.0,2.0,24,0.00,,---,0.00,VWS V14.01,2013-06-14 23:25:00,
2013-06-14 17:30:00,67.8,33.5,29.95,North,5,1.0,4.0,28,0.00,,---,0.00,VWS V14.01,2013-06-14 23:30:00,
2013-06-14 17:35:00,68.4,31.2,29.94,SSE,167,0.0,3.0,25,0.00,,---,0.00,VWS V14.01,2013-06-14 23:35:00,
2013-06-14 17:40:00,68.3,28.0,29.94,North,350,5.0,11.0,22,0.00,,---,0.00,VWS V14.01,2013-06-14 23:40:00,
2013-06-14 17:45:00,67.1,29.1,29.94,NW,313,0.0,7.0,24,0.00,,---,0.00,VWS V14.01,2013-06-14 23:45:00,
2013-06-14 17:50:00,66.1,31.2,29.95,NE,34,0.0,7.0,27,0.00,,---,0.00,VWS V14.01,2013-06-14 23:50:00,
2013-06-14 17:55:00,66.6,31.6,29.95,North,9,3.0,5.0,27,0.00,,---,0.00,VWS V14.01,2013-06-14 23:55:00,
2013-06-14 18:00:00,66.4,29.5,29.95,WNW,292,2.0,7.0,25,0.00,,---,0.00,VWS V14.01,2013-06-15 00:00:00,
2013-06-14 18:05:00,66.8,30.8,29.94,ENE,72,0.0,3.0,26,0.00,,---,0.00,VWS V14.01,2013-06-15 00:05:00,
2013-06-14 18:10:00,66.4,29.5,29.94,NE,34,3.0,5.0,25,0.00,,---,0.00,VWS V14.01,2013-06-15 00:10:00,
2013-06-14 18:15:00,66.0,32.9,29.94,NE,54,1.0,3.0,29,0.00,,---,0.00,VWS V14.01,2013-06-15 00:15:00,
2013-06-14 18:20:00,66.1,29.3,29.94,NNE,32,3.0,12.0,25,0.00,,---,0.00,VWS V14.01,2013-06-15 00:20:00,
2013-06-14 18:25:00,66.4,29.5,29.94,NNE,16,0.0,8.0,25,0.00,,---,0.00,VWS V14.01,2013-06-15 00:25:00,
2013-06-14 18:31:00,66.3,30.4,29.94,West,261,0.0,6.0,26,0.00,,---,0.00,VWS V14.01,2013-06-15 00:31:00,
2013-06-14 18:36:00,65.2,30.4,29.94,NW,304,1.0,4.0,27,0.00,,---,0.00,VWS V14.01,2013-06-15 00:36:00,
2013-06-14 18:41:00,65.2,30.4,29.94,NNW,327,0.0,5.0,27,0.00,,---,0.00,VWS V14.01,2013-06-15 00:41:00,
2013-06-14 18:46:00,64.8,32.7,29.94,WNW,298,0.0,3.0,30,0.00,,---,0.00,VWS V14.01,2013-06-15 00:46:00,
2013-06-14 18:51:00,64.3,32.2,29.93,ESE,117,0.0,2.0,30,0.00,,---,0.00,VWS V14.01,2013-06-15 00:51:00,
2013-06-14 18:56:00,64.3,30.5,29.93,NNE,17,1.0,4.0,28,0.00,,---,0.00,VWS V14.01,2013-06-15 00:56:00,
2013-06-14 19:01:00,63.7,30.0,29.95,NNW,336,0.0,14.0,28,0.00,,---,0.00,VWS V14.01,2013-06-15 01:01:00,
2013-06-14 19:06:00,63.2,29.6,29.95,North,360,2.0,4.0,28,0.00,,---,0.00,VWS V14.01,2013-06-15 01:06:00,
2013-06-14 19:11:00,62.3,27.9,29.95,NNE,19,2.0,9.0,27,0.00,,---,0.00,VWS V14.01,2013-06-15 01:11:00,
2013-06-14 19:16:00,61.5,30.6,29.96,NNE,20,1.0,3.0,31,0.00,,---,0.00,VWS V14.01,2013-06-15 01:16:00,
2013-06-14 19:21:00,60.4,28.9,29.96,ENE,64,0.0,3.0,30,0.00,,---,0.00,VWS V14.01,2013-06-15 01:21:00,
2013-06-14 19:26:00,59.5,28.1,29.96,West,273,0.0,2.0,30,0.00,,---,0.00,VWS V14.01,2013-06-15 01:26:00,
2013-06-14 19:31:00,58.4,30.9,29.97,West,274,0.0,0.0,35,0.00,,---,0.00,VWS V14.01,2013-06-15 01:31:00,
2013-06-14 19:36:00,58.0,33.2,29.97,NW,317,2.0,4.0,39,0.00,,---,0.00,VWS V14.01,2013-06-15 01:36:00,
2013-06-14 19:41:00,57.6,32.8,29.97,East,88,0.0,1.0,39,0.00,,---,0.00,VWS V14.01,2013-06-15 01:41:00,
2013-06-14 19:46:00,57.5,30.8,29.98,NNW,348,0.0,4.0,36,0.00,,---,0.00,VWS V14.01,2013-06-15 01:46:00,
2013-06-14 19:51:00,57.5,31.5,29.98,NE,38,2.0,6.0,37,0.00,,---,0.00,VWS V14.01,2013-06-15 01:51:00,
2013-06-14 19:57:00,57.5,30.8,29.98,SW,219,1.0,7.0,36,0.00,,---,0.00,VWS V14.01,2013-06-15 01:57:00,
2013-06-14 20:02:00,57.5,30.1,29.99,NNE,14,1.0,5.0,35,0.00,,---,0.00,VWS V14.01,2013-06-15 02:02:00,
2013-06-14 20:07:00,57.5,30.8,29.99,NW,322,0.0,3.0,36,0.00,,---,0.00,VWS V14.01,2013-06-15 02:07:00,
2013-06-14 20:12:00,57.5,29.4,29.99,NNE,25,0.0,1.0,34,0.00,,---,0.00,VWS V14.01,2013-06-15 02:12:00,
2013-06-14 20:17:00,57.5,29.4,29.97,WSW,249,3.0,4.0,34,0.00,,---,0.00,VWS V14.01,2013-06-15 02:17:00,
2013-06-14 20:22:00,57.2,29.1,29.97,East,98,1.0,1.0,34,0.00,,---,0.00,VWS V14.01,2013-06-15 02:22:00,
2013-06-14 20:27:00,57.0,29.6,29.97,NW,315,0.0,0.0,35,0.00,,---,0.00,VWS V14.01,2013-06-15 02:27:00,
2013-06-14 20:32:00,56.7,30.7,29.99,NNE,26,0.0,0.0,37,0.00,,---,0.00,VWS V14.01,2013-06-15 02:32:00,
2013-06-14 20:37:00,56.5,30.6,29.99,NNE,26,2.0,2.0,37,0.00,,---,0.00,VWS V14.01,2013-06-15 02:37:00,
2013-06-14 20:42:00,56.2,31.6,29.99,NNE,26,0.0,0.0,39,0.00,,---,0.00,VWS V14.01,2013-06-15 02:42:00,
2013-06-14 20:47:00,55.7,33.6,29.99,NNE,26,0.0,0.0,43,0.00,,---,0.00,VWS V14.01,2013-06-15 02:47:00,
2013-06-14 20:52:00,55.3,33.2,29.99,NNE,26,0.0,0.0,43,0.00,,---,0.00,VWS V14.01,2013-06-15 02:52:00,
2013-06-14 20:57:00,54.8,30.3,29.99,East,93,0.0,0.0,39,0.00,,---,0.00,VWS V14.01,2013-06-15 02:57:00,
2013-06-14 21:02:00,54.7,30.2,30.00,NNE,26,0.0,0.0,39,0.00,,---,0.00,VWS V14.01,2013-06-15 03:02:00,
2013-06-14 21:07:00,54.7,29.6,30.00,NNE,20,0.0,0.0,38,0.00,,---,0.00,VWS V14.01,2013-06-15 03:07:00,
2013-06-14 21:12:00,54.2,33.9,30.00,NNE,20,0.0,0.0,46,0.00,,---,0.00,VWS V14.01,2013-06-15 03:12:00,
2013-06-14 21:17:00,53.5,33.8,29.99,NNE,20,0.0,0.0,47,0.00,,---,0.00,VWS V14.01,2013-06-15 03:17:00,
2013-06-14 21:23:00,52.8,33.2,29.99,NNE,20,0.0,0.0,47,0.00,,---,0.00,VWS V14.01,2013-06-15 03:23:00,
2013-06-14 21:28:00,52.0,34.0,29.99,NNE,20,0.0,0.0,50,0.00,,---,0.00,VWS V14.01,2013-06-15 03:28:00,
2013-06-14 21:33:00,51.4,30.8,30.00,NNW,331,0.0,1.0,45,0.00,,---,0.00,VWS V14.01,2013-06-15 03:33:00,
2013-06-14 21:38:00,51.0,33.0,30.00,NNW,331,0.0,0.0,50,0.00,,---,0.00,VWS V14.01,2013-06-15 03:38:00,
2013-06-14 21:44:00,50.7,34.7,30.00,NNW,333,0.0,0.0,54,0.00,,---,0.00,VWS V14.01,2013-06-15 03:44:00,
2013-06-14 21:49:00,50.4,33.9,30.02,NNW,343,0.0,0.0,53,0.00,,---,0.00,VWS V14.01,2013-06-15 03:49:00,
2013-06-14 21:54:00,50.4,33.9,30.02,WNW,293,0.0,1.0,53,0.00,,---,0.00,VWS V14.01,2013-06-15 03:54:00,
2013-06-14 21:59:00,50.2,33.3,30.02,East,98,0.0,0.0,52,0.00,,---,0.00,VWS V14.01,2013-06-15 03:59:00,
2013-06-14 22:01:00,50.2,32.8,30.03,SE,132,0.0,1.0,51,0.00,,---,0.00,VWS V14.01,2013-06-15 04:01:00,
2013-06-14 22:02:00,50.2,32.8,30.03,SE,132,0.0,1.0,51,0.00,,---,0.00,VWS V14.01,2013-06-15 04:02:00,
2013-06-14 22:05:00,50.1,33.7,30.03,SE,132,0.0,0.0,53,0.00,,---,0.00,VWS V14.01,2013-06-15 04:05:00,
2013-06-14 22:10:00,49.9,32.5,30.03,SE,132,0.0,0.0,51,0.00,,---,0.00,VWS V14.01,2013-06-15 04:10:00,
2013-06-14 22:15:00,49.9,33.5,30.03,SE,132,0.0,0.0,53,0.00,,---,0.00,VWS V14.01,2013-06-15 04:15:00,
2013-06-14 22:20:00,49.6,33.2,30.04,SE,132,0.0,0.0,53,0.00,,---,0.00,VWS V14.01,2013-06-15 04:20:00,
2013-06-14 22:25:00,49.5,33.1,30.04,SE,132,0.0,0.0,53,0.00,,---,0.00,VWS V14.01,2013-06-15 04:25:00,
2013-06-14 22:30:00,49.2,33.7,30.04,SE,132,0.0,0.0,55,0.00,,---,0.00,VWS V14.01,2013-06-15 04:30:00,
2013-06-14 22:35:00,49.1,34.1,30.04,SE,132,0.0,0.0,56,0.00,,---,0.00,VWS V14.01,2013-06-15 04:35:00,
2013-06-14 22:40:00,48.6,32.7,30.04,SE,132,0.0,0.0,54,0.00,,---,0.00,VWS V14.01,2013-06-15 04:40:00,
2013-06-14 22:45:00,48.3,34.7,30.04,SE,132,0.0,0.0,59,0.00,,---,0.00,VWS V14.01,2013-06-15 04:45:00,
2013-06-14 22:50:00,48.0,33.5,30.06,SE,132,0.0,0.0,57,0.00,,---,0.00,VWS V14.01,2013-06-15 04:50:00,
2013-06-14 22:55:00,47.7,35.3,30.06,SE,132,0.0,0.0,62,0.00,,---,0.00,VWS V14.01,2013-06-15 04:55:00,
2013-06-14 23:00:00,47.3,35.4,30.06,SE,132,0.0,0.0,63,0.00,,---,0.00,VWS V14.01,2013-06-15 05:00:00,
2013-06-14 23:05:00,46.8,34.9,30.06,SE,132,0.0,0.0,63,0.00,,---,0.00,VWS V14.01,2013-06-15 05:05:00,
2013-06-14 23:10:00,46.4,34.9,30.06,SE,132,0.0,0.0,64,0.00,,---,0.00,VWS V14.01,2013-06-15 05:10:00,
2013-06-14 23:15:00,45.8,35.1,30.06,SE,132,0.0,0.0,66,0.00,,---,0.00,VWS V14.01,2013-06-15 05:15:00,
2013-06-14 23:20:00,45.2,34.5,30.04,SE,132,0.0,0.0,66,0.00,,---,0.00,VWS V14.01,2013-06-15 05:20:00,
2013-06-14 23:25:00,44.8,34.5,30.04,SE,132,0.0,0.0,67,0.00,,---,0.00,VWS V14.01,2013-06-15 05:25:00,
2013-06-14 23:30:00,44.3,34.4,30.04,SE,132,0.0,0.0,68,0.00,,---,0.00,VWS V14.01,2013-06-15 05:30:00,
2013-06-14 23:35:00,44.1,34.2,30.04,SE,132,0.0,0.0,68,0.00,,---,0.00,VWS V14.01,2013-06-15 05:35:00,
2013-06-14 23:40:00,43.9,34.4,30.04,SE,132,0.0,0.0,69,0.00,,---,0.00,VWS V14.01,2013-06-15 05:40:00,
2013-06-14 23:46:00,43.9,34.8,30.04,SE,132,0.0,0.0,70,0.00,,---,0.00,VWS V14.01,2013-06-15 05:46:00,
2013-06-14 23:51:00,44.1,34.2,30.05,SE,132,0.0,0.0,68,0.00,,---,0.00,VWS V14.01,2013-06-15 05:51:00,
2013-06-14 23:56:00,44.1,34.2,30.05,SE,132,0.0,0.0,68,0.00,,---,0.00,VWS V14.01,2013-06-15 05:56:00,